カタログに戻る

DMSP 5D-3 F17 DEB

運用中SSO
NORAD 29600·DEBRIS·🇺🇸 United States

打ち上げ Nov 4, 2006 から Vandenberg Space Force Base

Loading…

次のパス (今後24時間)

TLE

最新Source: Space-Track

元期: Sep 14, 2026, 07:47 UTC

1 29600U 06050BS  26257.32477060  .00001648  00000-0  57957-3 0  9994
2 29600  98.5148 285.9766 0006288 209.4121 213.5762 14.36204532 28130

AllMySatでDMSP 5D-3 F17 DEBをリアルタイム追跡

Download on the App Store